Roanoke, VA

2:31 PM EST on November 13, 2019 (GMT -0500)
Roanoke Regional-Woodrum

Weather History for KROA - September, 2019

Change the Weather History Date:

Tuesday, September 10, 2019

  Actual Average Record
Temperature  
Mean Temperature 78 °F 70 °F  
Max Temperature 86 °F 81 °F 97 °F (1983)
Min Temperature 69 °F 60 °F 41 °F (1956)
Degree Days  
Heating Degree Days 0 1  
Month to date heating degree days 0 2  
Since 1 July heating degree days 0 3  
Cooling Degree Days 13 6  
Month to date cooling degree days 120 70  
Year to date cooling degree days 1483 1117  
Growing Degree Days 28 (Base 50)    
Moisture  
Dew Point 68 °F    
Average Humidity 79    
Maximum Humidity 97    
Minimum Humidity 61    
Precipitation  
Precipitation T in 0.13 in 3.07 in (1950)
Month to date precipitation 0.06 1.35  
Year to date precipitation 30.76 29.48  
Snow  
Snow 0.00 in - - ()
Month to date snowfall 0.0  
Since 1 July snowfall T  
Since 1 September snowfall 0.0  
Snow Depth 0.00 in    
Sea Level Pressure  
Sea Level Pressure 30.30 in    
Wind  
Wind Speed 4 mph (SE)    
Max Wind Speed 12 mph    
Max Gust Speed 16 mph    
Visibility 9 miles    
Events      
T = Trace of Precipitation, MM = Missing Value Source: NWS Daily Summary

Daily Weather History Graph

Daily Weather History Graph

Search for Another Location

Airport or City:

Astronomy

Sep. 10, 2019 Rise Set
Actual Time 6:57 AM EDT 7:35 PM EDT
Civil Twilight 6:31 AM EDT 8:01 PM EDT
Nautical Twilight 6:00 AM EDT 8:32 PM EDT
Astronomical Twilight 5:28 AM EDT 9:04 PM EDT
Moon 6:05 PM EDT (9/10) 3:27 AM EDT (9/10)
Length of Visible Light 13h 30m
Length of Day
12h 37m
Waxing Gibbous, 89% of the Moon is Illuminated
Sep 10
Waxing Gibbous
Sep 14
Full
Sep 21
Last Quarter
Sep 28
New
Oct 5
First Quarter

Hourly Weather History & Observations

Time (EDT) Temp. Heat Index Dew Point Humidity Pressure Visibility Wind Dir Wind Speed Gust Speed Precip Events Conditions
12:54 AM 73.0 °F - 66.0 °F 79% 30.26 in 10.0 mi Calm Calm - N/A   Overcast
1:54 AM 72.0 °F - 64.9 °F 78% 30.26 in 10.0 mi NNW 3.5 mph - N/A   Partly Cloudy
2:54 AM 71.1 °F - 66.0 °F 84% 30.26 in 10.0 mi Calm Calm - N/A   Clear
3:42 AM 71.1 °F - 66.0 °F 84% 30.29 in 10.0 mi Calm Calm - N/A   Mostly Cloudy
3:54 AM 71.1 °F - 66.0 °F 84% 30.26 in 10.0 mi Calm Calm - N/A   Overcast
4:54 AM 71.1 °F - 66.0 °F 84% 30.27 in 10.0 mi North 3.5 mph - N/A   Overcast
5:54 AM 71.1 °F - 66.0 °F 84% 30.28 in 10.0 mi ESE 4.6 mph - N/A   Overcast
6:34 AM 71.1 °F - 66.9 °F 87% 30.33 in 10.0 mi SE 8.1 mph - N/A   Overcast
6:54 AM 71.1 °F - 66.9 °F 87% 30.30 in 10.0 mi ESE 9.2 mph - N/A   Overcast
7:54 AM 70.0 °F - 68.0 °F 93% 30.32 in 3.0 mi ESE 6.9 mph - N/A   Overcast
7:56 AM 70.0 °F - 68.0 °F 93% 30.36 in 1.8 mi ESE 6.9 mph - 0.00 in   Light Drizzle
8:03 AM 70.0 °F - 68.0 °F 93% 30.36 in 2.0 mi ESE 5.8 mph - 0.00 in   Light Drizzle
8:10 AM 69.1 °F - 68.0 °F 96% 30.36 in 1.0 mi ESE 5.8 mph - 0.00 in   Light Drizzle
8:25 AM 70.0 °F - 68.0 °F 93% 30.37 in 2.0 mi SE 3.5 mph - 0.00 in   Overcast
8:39 AM 70.0 °F - 68.0 °F 93% 30.37 in 10.0 mi ESE 5.8 mph - 0.00 in   Overcast
8:54 AM 71.1 °F - 66.9 °F 87% 30.35 in 10.0 mi SE 5.8 mph - 0.00 in   Overcast
9:54 AM 72.0 °F - 66.9 °F 84% 30.35 in 10.0 mi East 4.6 mph - N/A   Overcast
10:10 AM 73.0 °F - 68.0 °F 84% 30.38 in 10.0 mi Variable 3.5 mph - N/A   Overcast
10:54 AM 75.0 °F - 68.0 °F 79% 30.35 in 10.0 mi Calm Calm - N/A   Overcast
11:54 AM 77.0 °F - 68.0 °F 74% 30.34 in 10.0 mi SE 8.1 mph - N/A   Overcast
12:54 PM 77.0 °F - 69.1 °F 76% 30.33 in 10.0 mi Variable 4.6 mph - N/A   Overcast
1:54 PM 81.0 °F 84.1 °F 69.1 °F 67% 30.32 in 10.0 mi South 3.5 mph - N/A   Overcast
2:54 PM 82.9 °F 87.0 °F 70.0 °F 65% 30.29 in 10.0 mi SE 8.1 mph - N/A   Overcast
3:01 PM 82.9 °F 86.5 °F 69.1 °F 63% 30.32 in 10.0 mi SSE 10.4 mph - N/A   Mostly Cloudy
3:54 PM 84.0 °F 87.8 °F 69.1 °F 61% 30.27 in 10.0 mi SSE 8.1 mph - N/A   Mostly Cloudy
4:54 PM 84.9 °F 88.8 °F 69.1 °F 59% 30.26 in 10.0 mi South 8.1 mph - N/A   Scattered Clouds
5:54 PM 84.0 °F 87.8 °F 69.1 °F 61% 30.26 in 10.0 mi South 9.2 mph - N/A   Scattered Clouds
6:54 PM 82.0 °F 85.5 °F 69.1 °F 65% 30.25 in 10.0 mi SSE 6.9 mph - N/A   Mostly Cloudy
7:54 PM 81.0 °F 84.1 °F 69.1 °F 67% 30.26 in 10.0 mi SE 4.6 mph - N/A   Mostly Cloudy
8:54 PM 80.1 °F 83.2 °F 70.0 °F 71% 30.26 in 10.0 mi ESE 4.6 mph - N/A   Mostly Cloudy
9:54 PM 78.1 °F - 69.1 °F 74% 30.28 in 10.0 mi Calm Calm - N/A   Mostly Cloudy
10:54 PM 78.1 °F - 70.0 °F 76% 30.28 in 10.0 mi SSE 3.5 mph - N/A   Mostly Cloudy
11:54 PM 75.9 °F - 70.0 °F 82% 30.29 in 10.0 mi Calm Calm - N/A   Clear